• In India
  • List of Countries
  • For 7 days
  • Water Temperature
  • Satellite Maps
  • Weather Map
  • Weather Widgets
  • user-avatar
    Login

    Hourly Weather Nynashamn

    Today, 16 December, Sunday

    Time Temperature Precipitation Wind Pressure Humidity
    00:00 -1°C° 0 mm 3 mps 772 mmHg 86%
    01:00 -1°C° 0 mm 3 mps 772 mmHg 85%
    02:00 -2°C° 0 mm 4 mps 771 mmHg 85%
    03:00 -2°C° 0 mm 4 mps 771 mmHg 86%
    04:00 -1°C° 0 mm 4 mps 770 mmHg 86%
    05:00 -1°C° 0.1 mm 5 mps 770 mmHg 86%
    06:00 -1°C° 0.1 mm 5 mps 770 mmHg 87%
    07:00 -1°C° 0.1 mm 5 mps 769 mmHg 87%
    08:00 -1°C° 0.1 mm 5 mps 769 mmHg 86%
    09:00 -1°C° 0.1 mm 5 mps 769 mmHg 85%
    10:00 -1°C° 0.1 mm 5 mps 769 mmHg 84%
    11:00 -1°C° 0.1 mm 5 mps 768 mmHg 83%
    12:00 -1°C° 0.1 mm 5 mps 767 mmHg 83%
    13:00 -2°C° 0.1 mm 6 mps 767 mmHg 82%
    14:00 -2°C° 0.2 mm 6 mps 766 mmHg 83%
    15:00 -2°C° 0.2 mm 6 mps 766 mmHg 84%
    16:00 -2°C° 0.2 mm 6 mps 765 mmHg 85%
    17:00 -2°C° 0.3 mm 6 mps 765 mmHg 86%
    18:00 -2°C° 0.3 mm 6 mps 764 mmHg 86%
    19:00 -2°C° 0.3 mm 6 mps 764 mmHg 87%
    20:00 -1°C° 0.6 mm 5 mps 763 mmHg 88%
    21:00 -2°C° 0.6 mm 5 mps 763 mmHg 90%
    22:00 -2°C° 0.6 mm 5 mps 762 mmHg 91%
    23:00 -2°C° 0.3 mm 4 mps 762 mmHg 91%

    Tomorrow, 17 December, Monday

    Time Temperature Precipitation Wind Pressure Humidity
    00:00 -2°C° 0.3 mm 4 mps 762 mmHg 92%
    01:00 -2°C° 0.3 mm 4 mps 762 mmHg 92%
    02:00 -1°C° 0.1 mm 3 mps 761 mmHg 92%
    03:00 -1°C° 0.1 mm 3 mps 761 mmHg 92%
    04:00 -1°C° 0.1 mm 3 mps 761 mmHg 92%
    05:00 -1°C° 0 mm 3 mps 761 mmHg 92%
    06:00 -2°C° 0 mm 3 mps 761 mmHg 92%
    07:00 -2°C° 0 mm 3 mps 761 mmHg 92%
    08:00 -2°C° 0 mm 3 mps 762 mmHg 92%
    09:00 -2°C° 0 mm 2 mps 762 mmHg 93%
    10:00 -2°C° 0 mm 2 mps 763 mmHg 94%
    11:00 -2°C° 0 mm 2 mps 763 mmHg 93%
    12:00 -2°C° 0 mm 2 mps 763 mmHg 93%
    13:00 -2°C° 0 mm 2 mps 763 mmHg 93%
    14:00 -2°C° 0 mm 2 mps 763 mmHg 94%
    15:00 -2°C° 0 mm 2 mps 764 mmHg 94%
    16:00 -3°C° 0 mm 2 mps 764 mmHg 95%
    17:00 -3°C° 0 mm 2 mps 764 mmHg 95%
    18:00 -3°C° 0 mm 2 mps 765 mmHg 95%
    19:00 -3°C° 0 mm 2 mps 765 mmHg 95%
    20:00 -3°C° 0 mm 2 mps 765 mmHg 94%
    21:00 -3°C° 0 mm 2 mps 765 mmHg 94%
    22:00 -3°C° 0 mm 2 mps 766 mmHg 93%
    23:00 -3°C° 0 mm 2 mps 766 mmHg 93%

    Day after tomorrow, 18 December, Tuesday

    Time Temperature Precipitation Wind Pressure Humidity
    00:00 -3°C° 0 mm 2 mps 766 mmHg 93%
    01:00 -2°C° 0 mm 2 mps 766 mmHg 93%
    02:00 -4°C° 0 mm 3 mps 767 mmHg 93%
    03:00 -4°C° 0 mm 3 mps 767 mmHg 93%
    04:00 -4°C° 0 mm 3 mps 767 mmHg 94%
    05:00 -4°C° 0 mm 3 mps 767 mmHg 94%
    06:00 -4°C° 0 mm 3 mps 767 mmHg 94%
    07:00 -4°C° 0 mm 2 mps 767 mmHg 95%
    08:00 -4°C° 0 mm 2 mps 768 mmHg 94%
    09:00 -4°C° 0 mm 2 mps 768 mmHg 94%
    10:00 -4°C° 0 mm 2 mps 768 mmHg 93%
    11:00 -3°C° 0 mm 2 mps 768 mmHg 91%
    12:00 -3°C° 0 mm 2 mps 768 mmHg 89%
    13:00 -2°C° 0 mm 2 mps 768 mmHg 87%
    14:00 -3°C° 0 mm 2 mps 768 mmHg 88%
    15:00 -3°C° 0 mm 2 mps 769 mmHg 89%
    16:00 -3°C° 0 mm 2 mps 769 mmHg 90%
    17:00 -3°C° 0 mm 2 mps 769 mmHg 88%
    18:00 -3°C° 0 mm 2 mps 769 mmHg 85%
    19:00 -3°C° 0 mm 2 mps 769 mmHg 83%
    20:00 -2°C° 0 mm 2 mps 769 mmHg 85%
    21:00 -2°C° 0 mm 2 mps 769 mmHg 86%
    22:00 -2°C° 0 mm 2 mps 769 mmHg 87%
    23:00 -2°C° 0.1 mm 3 mps 769 mmHg 89%

    19 December, Wednesday

    Time Temperature Precipitation Wind Pressure Humidity
    00:00 -1°C° 0.1 mm 3 mps 769 mmHg 91%
    01:00 -1°C° 0.1 mm 3 mps 769 mmHg 94%
    02:00 -1°C° 0 mm 3 mps 769 mmHg 94%
    03:00 -3°C° 0 mm 4 mps 768 mmHg 94%
    04:00 -3°C° 0 mm 4 mps 768 mmHg 94%
    05:00 -3°C° 0 mm 4 mps 768 mmHg 94%
    06:00 -3°C° 0 mm 4 mps 768 mmHg 94%
    07:00 -3°C° 0 mm 4 mps 768 mmHg 95%
    08:00 -2°C° 0 mm 4 mps 768 mmHg 94%
    09:00 -2°C° 0 mm 4 mps 768 mmHg 93%
    10:00 -1°C° 0 mm 4 mps 768 mmHg 92%
    11:00 -1°C° 0 mm 5 mps 768 mmHg 91%
    12:00 -1°C° 0 mm 5 mps 768 mmHg 89%
    13:00 0°C° 0 mm 5 mps 768 mmHg 88%
    14:00 -1°C° 0 mm 6 mps 767 mmHg 88%
    15:00 -1°C° 0 mm 6 mps 767 mmHg 88%
    16:00 -1°C° 0 mm 6 mps 767 mmHg 89%
    17:00 -1°C° 0 mm 6 mps 767 mmHg 89%
    18:00 -1°C° 0 mm 6 mps 767 mmHg 89%
    19:00 -1°C° 0 mm 6 mps 767 mmHg 88%
    20:00 -1°C° 0 mm 6 mps 767 mmHg 88%
    21:00 -1°C° 0 mm 6 mps 767 mmHg 88%
    22:00 -1°C° 0 mm 6 mps 767 mmHg 88%
    23:00 -1°C° 0 mm 6 mps 766 mmHg 88%

    20 December, Thursday

    Time Temperature Precipitation Wind Pressure Humidity
    00:00 -1°C° 0 mm 6 mps 766 mmHg 88%
    01:00 -1°C° 0 mm 6 mps 766 mmHg 88%
    02:00 -1°C° 0 mm 6 mps 766 mmHg 88%
    03:00 -1°C° 0 mm 7 mps 766 mmHg 88%
    04:00 -1°C° 0 mm 7 mps 766 mmHg 88%
    05:00 -1°C° 0 mm 7 mps 765 mmHg 88%
    06:00 -1°C° 0 mm 7 mps 765 mmHg 88%
    07:00 -1°C° 0 mm 7 mps 765 mmHg 88%
    08:00 -1°C° 0 mm 7 mps 765 mmHg 88%
    09:00 -1°C° 0 mm 7 mps 765 mmHg 88%
    10:00 -1°C° 0 mm 7 mps 765 mmHg 88%
    11:00 -1°C° 0.1 mm 7 mps 765 mmHg 88%
    12:00 -1°C° 0.1 mm 7 mps 765 mmHg 89%
    13:00 -1°C° 0.1 mm 6 mps 765 mmHg 89%
    14:00 -1°C° 0.1 mm 6 mps 765 mmHg 90%
    15:00 -1°C° 0.1 mm 6 mps 765 mmHg 90%
    16:00 -1°C° 0.1 mm 6 mps 765 mmHg 90%
    17:00 -1°C° 0.1 mm 6 mps 765 mmHg 91%
    18:00 -1°C° 0.1 mm 6 mps 764 mmHg 91%
    19:00 -1°C° 0.1 mm 6 mps 764 mmHg 91%
    20:00 -1°C° 0.2 mm 6 mps 764 mmHg 91%
    21:00 0°C° 0.2 mm 5 mps 764 mmHg 92%
    22:00 0°C° 0.2 mm 5 mps 764 mmHg 92%
    23:00 0°C° 0.3 mm 5 mps 764 mmHg 93%

    21 December, Friday

    Time Temperature Precipitation Wind Pressure Humidity
    00:00 0°C° 0.3 mm 5 mps 764 mmHg 93%
    01:00 0°C° 0.3 mm 5 mps 764 mmHg 93%
    02:00 0°C° 0.4 mm 5 mps 764 mmHg 93%
    03:00 0°C° 0.4 mm 5 mps 764 mmHg 93%
    04:00 0°C° 0.4 mm 4 mps 763 mmHg 94%
    05:00 -1°C° 0.4 mm 4 mps 763 mmHg 94%
    06:00 -1°C° 0.4 mm 4 mps 763 mmHg 94%
    07:00 -1°C° 0.4 mm 4 mps 763 mmHg 94%
    08:00 -1°C° 0.2 mm 4 mps 763 mmHg 94%
    09:00 -1°C° 0.2 mm 4 mps 763 mmHg 95%
    10:00 -1°C° 0.2 mm 4 mps 763 mmHg 95%
    11:00 -1°C° 0.1 mm 4 mps 762 mmHg 95%
    12:00 0°C° 0.1 mm 3 mps 762 mmHg 95%
    13:00 0°C° 0.1 mm 3 mps 762 mmHg 95%
    14:00 -1°C° 0 mm 4 mps 761 mmHg 95%
    15:00 -2°C° 0 mm 4 mps 761 mmHg 95%
    16:00 -2°C° 0 mm 4 mps 760 mmHg 96%
    17:00 -1°C° 0 mm 5 mps 760 mmHg 95%
    18:00 -2°C° 0 mm 6 mps 760 mmHg 94%
    19:00 -1°C° 0 mm 6 mps 759 mmHg 93%
    20:00 0°C° 0.1 mm 7 mps 758 mmHg 92%
    21:00 0°C° 0.1 mm 8 mps 758 mmHg 91%
    22:00 0°C° 0.1 mm 8 mps 757 mmHg 89%
    23:00 0°C° 0.4 mm 9 mps 756 mmHg 89%
    Show more